Time,TemperatureF,DewpointF,PressureIn,WindDirection,WindDirectionDegrees,WindSpeedMPH,WindSpeedGustMPH,Humidity,HourlyPrecipIn,Conditions,Clouds,dailyrainin,SoftwareType,DateUTC
2013-04-17 00:01:00,51.0,39.0,30.18,NW,322,1.0,-999.0,64,-99.99,,,-99.99,,2013-04-17 07:01:00,
2013-04-17 00:11:00,51.0,39.0,30.18,NW,322,1.0,-999.0,64,-99.99,,,-99.99,,2013-04-17 07:11:00,
2013-04-17 00:21:00,51.0,40.0,30.19,NW,311,0.0,-999.0,65,-99.99,,,-99.99,,2013-04-17 07:21:00,
2013-04-17 00:32:00,51.0,40.0,30.19,WNW,299,1.0,-999.0,66,-99.99,,,-99.99,,2013-04-17 07:32:00,
2013-04-17 00:42:00,51.0,40.0,30.19,WNW,299,1.0,-999.0,66,-99.99,,,-99.99,,2013-04-17 07:42:00,
2013-04-17 00:52:00,50.0,39.0,30.19,NNW,327,1.0,-999.0,67,-99.99,,,-99.99,,2013-04-17 07:52:00,
2013-04-17 01:02:00,49.0,39.0,30.20,NNW,329,0.0,-999.0,68,-99.99,,,-99.99,,2013-04-17 08:02:00,
2013-04-17 01:11:00,49.0,39.0,30.20,NNW,329,0.0,-999.0,68,-99.99,,,-99.99,,2013-04-17 08:11:00,
2013-04-17 01:22:00,49.0,39.0,30.20,North,360,0.0,-999.0,68,-99.99,,,-99.99,,2013-04-17 08:22:00,
2013-04-17 01:32:00,49.0,39.0,30.20,North,355,0.0,-999.0,68,-99.99,,,-99.99,,2013-04-17 08:32:00,
2013-04-17 01:42:00,49.0,39.0,30.20,North,355,0.0,-999.0,68,-99.99,,,-99.99,,2013-04-17 08:42:00,
2013-04-17 01:52:00,49.0,39.0,30.21,North,355,0.0,-999.0,67,-99.99,,,-99.99,,2013-04-17 08:52:00,
2013-04-17 02:01:00,49.0,39.0,30.21,North,355,0.0,-999.0,68,-99.99,,,-99.99,,2013-04-17 09:01:00,
2013-04-17 02:12:00,49.0,39.0,30.21,North,355,0.0,-999.0,68,-99.99,,,-99.99,,2013-04-17 09:12:00,
2013-04-17 02:22:00,48.0,38.0,30.20,North,355,0.0,-999.0,69,-99.99,,,-99.99,,2013-04-17 09:22:00,
2013-04-17 02:32:00,47.0,38.0,30.21,North,355,0.0,-999.0,71,-99.99,,,-99.99,,2013-04-17 09:32:00,
2013-04-17 02:42:00,47.0,38.0,30.21,North,355,0.0,-999.0,71,-99.99,,,-99.99,,2013-04-17 09:42:00,
2013-04-17 02:52:00,47.0,38.0,30.21,North,355,0.0,-999.0,72,-99.99,,,-99.99,,2013-04-17 09:52:00,
2013-04-17 03:02:00,47.0,38.0,30.21,North,355,0.0,-999.0,71,-99.99,,,-99.99,,2013-04-17 10:02:00,
2013-04-17 03:12:00,47.0,38.0,30.21,North,355,0.0,-999.0,71,-99.99,,,-99.99,,2013-04-17 10:12:00,
2013-04-17 03:22:00,47.0,38.0,30.21,North,355,0.0,-999.0,70,-99.99,,,-99.99,,2013-04-17 10:22:00,
2013-04-17 03:32:00,47.0,38.0,30.21,North,355,0.0,-999.0,71,-99.99,,,-99.99,,2013-04-17 10:32:00,
2013-04-17 03:42:00,47.0,38.0,30.21,North,355,0.0,-999.0,71,-99.99,,,-99.99,,2013-04-17 10:42:00,
2013-04-17 03:52:00,46.0,37.0,30.20,North,355,0.0,-999.0,72,-99.99,,,-99.99,,2013-04-17 10:52:00,
2013-04-17 04:02:00,45.0,37.0,30.20,North,355,0.0,-999.0,73,-99.99,,,-99.99,,2013-04-17 11:02:00,
2013-04-17 04:11:00,45.0,37.0,30.20,North,355,0.0,-999.0,73,-99.99,,,-99.99,,2013-04-17 11:11:00,
2013-04-17 04:21:00,45.0,37.0,30.21,North,355,0.0,-999.0,74,-99.99,,,-99.99,,2013-04-17 11:21:00,
2013-04-17 04:32:00,45.0,37.0,30.21,North,355,0.0,-999.0,74,-99.99,,,-99.99,,2013-04-17 11:32:00,
2013-04-17 04:42:00,45.0,37.0,30.21,North,355,0.0,-999.0,74,-99.99,,,-99.99,,2013-04-17 11:42:00,
2013-04-17 04:51:00,44.0,37.0,30.21,North,355,0.0,-999.0,75,-99.99,,,-99.99,,2013-04-17 11:51:00,
2013-04-17 05:02:00,43.0,36.0,30.21,North,355,0.0,-999.0,77,-99.99,,,-99.99,,2013-04-17 12:02:00,
2013-04-17 05:12:00,43.0,36.0,30.21,North,355,0.0,-999.0,77,-99.99,,,-99.99,,2013-04-17 12:12:00,
2013-04-17 05:22:00,42.0,36.0,30.22,North,355,0.0,-999.0,78,-99.99,,,-99.99,,2013-04-17 12:22:00,
2013-04-17 05:32:00,41.0,35.0,30.22,North,355,0.0,-999.0,80,-99.99,,,-99.99,,2013-04-17 12:32:00,
2013-04-17 05:42:00,41.0,35.0,30.22,North,355,0.0,-999.0,80,-99.99,,,-99.99,,2013-04-17 12:42:00,
2013-04-17 05:52:00,41.0,36.0,30.22,North,355,0.0,-999.0,81,-99.99,,,-99.99,,2013-04-17 12:52:00,
2013-04-17 06:02:00,40.0,35.0,30.23,North,355,0.0,-999.0,83,-99.99,,,-99.99,,2013-04-17 13:02:00,
2013-04-17 06:12:00,40.0,35.0,30.23,North,355,0.0,-999.0,83,-99.99,,,-99.99,,2013-04-17 13:12:00,
2013-04-17 06:22:00,40.0,35.0,30.23,North,355,0.0,-999.0,83,-99.99,,,-99.99,,2013-04-17 13:22:00,
2013-04-17 06:32:00,40.0,35.0,30.24,North,355,0.0,-999.0,83,-99.99,,,-99.99,,2013-04-17 13:32:00,
2013-04-17 06:42:00,40.0,35.0,30.24,North,355,0.0,-999.0,83,-99.99,,,-99.99,,2013-04-17 13:42:00,
2013-04-17 06:52:00,40.0,35.0,30.24,North,355,0.0,-999.0,83,-99.99,,,-99.99,,2013-04-17 13:52:00,
2013-04-17 07:02:00,39.0,35.0,30.24,North,355,0.0,-999.0,84,-99.99,,,-99.99,,2013-04-17 14:02:00,
2013-04-17 07:12:00,39.0,35.0,30.24,North,355,0.0,-999.0,84,-99.99,,,-99.99,,2013-04-17 14:12:00,
2013-04-17 07:22:00,39.0,35.0,30.25,North,355,0.0,-999.0,85,-99.99,,,-99.99,,2013-04-17 14:22:00,
2013-04-17 07:32:00,40.0,36.0,30.26,North,355,0.0,-999.0,85,-99.99,,,-99.99,,2013-04-17 14:32:00,
2013-04-17 07:42:00,40.0,36.0,30.26,North,355,0.0,-999.0,85,-99.99,,,-99.99,,2013-04-17 14:42:00,
2013-04-17 07:52:00,40.0,36.0,30.26,North,355,0.0,-999.0,85,-99.99,,,-99.99,,2013-04-17 14:52:00,
2013-04-17 08:02:00,42.0,36.0,30.27,North,349,0.0,-999.0,80,-99.99,,,-99.99,,2013-04-17 15:02:00,
2013-04-17 08:11:00,42.0,36.0,30.27,North,349,0.0,-999.0,80,-99.99,,,-99.99,,2013-04-17 15:11:00,
2013-04-17 08:21:00,42.0,36.0,30.27,North,349,0.0,-999.0,80,-99.99,,,-99.99,,2013-04-17 15:21:00,
2013-04-17 08:33:00,46.0,38.0,30.28,NNW,338,0.0,-999.0,74,-99.99,,,-99.99,,2013-04-17 15:33:00,
2013-04-17 08:43:00,46.0,38.0,30.28,NNW,338,0.0,-999.0,74,-99.99,,,-99.99,,2013-04-17 15:43:00,
2013-04-17 08:53:00,47.0,39.0,30.28,NNW,338,0.0,-999.0,74,-99.99,,,-99.99,,2013-04-17 15:53:00,
2013-04-17 09:03:00,49.0,38.0,30.28,NW,317,0.0,-999.0,65,-99.99,,,-99.99,,2013-04-17 16:03:00,
2013-04-17 09:12:00,49.0,38.0,30.28,NW,317,0.0,-999.0,65,-99.99,,,-99.99,,2013-04-17 16:12:00,
2013-04-17 09:22:00,53.0,39.0,30.28,NNW,340,1.0,-999.0,58,-99.99,,,-99.99,,2013-04-17 16:22:00,
2013-04-17 09:32:00,56.0,38.0,30.28,North,9,2.0,-999.0,50,-99.99,,,-99.99,,2013-04-17 16:32:00,
2013-04-17 09:42:00,56.0,38.0,30.28,North,9,2.0,-999.0,50,-99.99,,,-99.99,,2013-04-17 16:42:00,
2013-04-17 09:52:00,57.0,36.0,30.28,NNE,22,2.0,-999.0,46,-99.99,,,-99.99,,2013-04-17 16:52:00,
2013-04-17 10:02:00,58.0,36.0,30.28,NW,311,1.0,-999.0,43,-99.99,,,-99.99,,2013-04-17 17:02:00,
2013-04-17 10:12:00,58.0,36.0,30.28,NW,311,1.0,-999.0,43,-99.99,,,-99.99,,2013-04-17 17:12:00,
2013-04-17 10:22:00,59.0,35.0,30.28,WNW,289,2.0,-999.0,41,-99.99,,,-99.99,,2013-04-17 17:22:00,
2013-04-17 10:32:00,60.0,34.0,30.28,NW,314,2.0,-999.0,37,-99.99,,,-99.99,,2013-04-17 17:32:00,
2013-04-17 10:42:00,60.0,34.0,30.28,NW,314,2.0,-999.0,37,-99.99,,,-99.99,,2013-04-17 17:42:00,
2013-04-17 10:51:00,60.0,34.0,30.28,NW,314,2.0,-999.0,37,-99.99,,,-99.99,,2013-04-17 17:51:00,
2013-04-17 11:02:00,62.0,35.0,30.28,NW,321,2.0,-999.0,37,-99.99,,,-99.99,,2013-04-17 18:02:00,
2013-04-17 11:12:00,62.0,35.0,30.28,NW,321,2.0,-999.0,37,-99.99,,,-99.99,,2013-04-17 18:12:00,
2013-04-17 11:22:00,62.0,32.0,30.28,NW,323,3.0,-999.0,32,-99.99,,,-99.99,,2013-04-17 18:22:00,
2013-04-17 11:32:00,63.0,29.0,30.28,SSE,151,1.0,-999.0,27,-99.99,,,-99.99,,2013-04-17 18:32:00,
2013-04-17 11:42:00,63.0,29.0,30.28,SSE,151,1.0,-999.0,27,-99.99,,,-99.99,,2013-04-17 18:42:00,
2013-04-17 11:52:00,64.0,27.0,30.28,WNW,283,1.0,-999.0,25,-99.99,,,-99.99,,2013-04-17 18:52:00,
2013-04-17 12:02:00,64.0,29.0,30.28,SSE,153,1.0,-999.0,27,-99.99,,,-99.99,,2013-04-17 19:02:00,
2013-04-17 12:12:00,64.0,29.0,30.28,SSE,153,1.0,-999.0,27,-99.99,,,-99.99,,2013-04-17 19:12:00,
2013-04-17 12:21:00,65.0,26.0,30.28,SSE,153,1.0,-999.0,23,-99.99,,,-99.99,,2013-04-17 19:21:00,
2013-04-17 12:32:00,66.0,29.0,30.27,South,186,1.0,-999.0,25,-99.99,,,-99.99,,2013-04-17 19:32:00,
2013-04-17 12:42:00,66.0,29.0,30.27,South,186,1.0,-999.0,25,-99.99,,,-99.99,,2013-04-17 19:42:00,
2013-04-17 12:52:00,66.0,29.0,30.27,NW,313,1.0,-999.0,25,-99.99,,,-99.99,,2013-04-17 19:52:00,
2013-04-17 13:02:00,67.0,28.0,30.27,SSE,155,1.0,-999.0,23,-99.99,,,-99.99,,2013-04-17 20:02:00,
2013-04-17 13:12:00,67.0,28.0,30.27,SSE,155,1.0,-999.0,23,-99.99,,,-99.99,,2013-04-17 20:12:00,
2013-04-17 13:22:00,67.0,32.0,30.26,North,355,1.0,-999.0,27,-99.99,,,-99.99,,2013-04-17 20:22:00,
2013-04-17 13:32:00,68.0,29.0,30.25,SE,144,1.0,-999.0,23,-99.99,,,-99.99,,2013-04-17 20:32:00,
2013-04-17 13:42:00,68.0,29.0,30.25,SE,144,1.0,-999.0,23,-99.99,,,-99.99,,2013-04-17 20:42:00,
2013-04-17 13:52:00,68.0,30.0,30.25,NNW,330,2.0,-999.0,24,-99.99,,,-99.99,,2013-04-17 20:52:00,
2013-04-17 14:02:00,68.0,32.0,30.24,East,88,1.0,-999.0,26,-99.99,,,-99.99,,2013-04-17 21:02:00,
2013-04-17 14:12:00,68.0,32.0,30.24,East,88,1.0,-999.0,26,-99.99,,,-99.99,,2013-04-17 21:12:00,
2013-04-17 14:22:00,69.0,35.0,30.24,SSE,166,1.0,-999.0,28,-99.99,,,-99.99,,2013-04-17 21:22:00,
2013-04-17 14:32:00,70.0,30.0,30.23,SW,228,0.0,-999.0,23,-99.99,,,-99.99,,2013-04-17 21:32:00,
2013-04-17 14:42:00,70.0,30.0,30.23,SW,228,0.0,-999.0,23,-99.99,,,-99.99,,2013-04-17 21:42:00,
2013-04-17 14:53:00,71.0,30.0,30.22,North,9,1.0,-999.0,22,-99.99,,,-99.99,,2013-04-17 21:53:00,
2013-04-17 15:02:00,72.0,31.0,30.22,North,360,1.0,-999.0,22,-99.99,,,-99.99,,2013-04-17 22:02:00,
2013-04-17 15:12:00,72.0,31.0,30.22,North,360,1.0,-999.0,22,-99.99,,,-99.99,,2013-04-17 22:12:00,
2013-04-17 15:22:00,72.0,30.0,30.21,NW,317,1.0,-999.0,21,-99.99,,,-99.99,,2013-04-17 22:22:00,
2013-04-17 15:33:00,71.0,27.0,30.20,SE,140,1.0,-999.0,19,-99.99,,,-99.99,,2013-04-17 22:33:00,
2013-04-17 15:42:00,71.0,27.0,30.20,SE,140,1.0,-999.0,19,-99.99,,,-99.99,,2013-04-17 22:42:00,
2013-04-17 15:52:00,73.0,28.0,30.20,NW,311,2.0,-999.0,19,-99.99,,,-99.99,,2013-04-17 22:52:00,
2013-04-17 16:02:00,74.0,32.0,30.19,NNW,340,1.0,-999.0,21,-99.99,,,-99.99,,2013-04-17 23:02:00,
2013-04-17 16:12:00,74.0,32.0,30.19,NNW,340,1.0,-999.0,21,-99.99,,,-99.99,,2013-04-17 23:12:00,
2013-04-17 16:22:00,75.0,30.0,30.19,North,360,1.0,-999.0,19,-99.99,,,-99.99,,2013-04-17 23:22:00,
2013-04-17 16:32:00,76.0,27.0,30.18,SE,142,0.0,-999.0,16,-99.99,,,-99.99,,2013-04-17 23:32:00,
2013-04-17 16:42:00,76.0,23.0,30.18,SE,136,1.0,-999.0,14,-99.99,,,-99.99,,2013-04-17 23:42:00,
2013-04-17 16:52:00,76.0,23.0,30.18,SE,136,1.0,-999.0,14,-99.99,,,-99.99,,2013-04-17 23:52:00,
2013-04-17 17:02:00,75.0,26.0,30.17,WNW,302,1.0,-999.0,16,-99.99,,,-99.99,,2013-04-18 00:02:00,
2013-04-17 17:12:00,75.0,26.0,30.17,WNW,302,1.0,-999.0,16,-99.99,,,-99.99,,2013-04-18 00:12:00,
2013-04-17 17:22:00,75.0,26.0,30.17,SSE,151,1.0,-999.0,16,-99.99,,,-99.99,,2013-04-18 00:22:00,
2013-04-17 17:32:00,75.0,24.0,30.17,SSE,149,1.0,-999.0,15,-99.99,,,-99.99,,2013-04-18 00:32:00,
2013-04-17 17:42:00,74.0,23.0,30.16,SSE,151,1.0,-999.0,15,-99.99,,,-99.99,,2013-04-18 00:42:00,
2013-04-17 17:52:00,74.0,23.0,30.16,SSE,151,1.0,-999.0,15,-99.99,,,-99.99,,2013-04-18 00:52:00,
2013-04-17 18:02:00,73.0,24.0,30.16,NNW,328,1.0,-999.0,16,-99.99,,,-99.99,,2013-04-18 01:02:00,
2013-04-17 18:12:00,73.0,21.0,30.16,NW,318,1.0,-999.0,14,-99.99,,,-99.99,,2013-04-18 01:12:00,
2013-04-17 18:22:00,73.0,21.0,30.16,NW,318,1.0,-999.0,14,-99.99,,,-99.99,,2013-04-18 01:22:00,
2013-04-17 18:32:00,71.0,35.0,30.17,SE,132,2.0,-999.0,27,-99.99,,,-99.99,,2013-04-18 01:32:00,
2013-04-17 18:42:00,70.0,39.0,30.16,SE,132,2.0,-999.0,32,-99.99,,,-99.99,,2013-04-18 01:42:00,
2013-04-17 18:52:00,70.0,39.0,30.16,SE,132,2.0,-999.0,32,-99.99,,,-99.99,,2013-04-18 01:52:00,
2013-04-17 19:02:00,68.0,43.0,30.17,SE,127,2.0,-999.0,40,-99.99,,,-99.99,,2013-04-18 02:02:00,
2013-04-17 19:32:00,66.0,44.0,30.18,SE,125,1.0,-999.0,45,-99.99,,,-99.99,,2013-04-18 02:32:00,
2013-04-17 19:42:00,66.0,44.0,30.18,SE,125,1.0,-999.0,45,-99.99,,,-99.99,,2013-04-18 02:42:00,
2013-04-17 19:51:00,66.0,44.0,30.18,SE,125,1.0,-999.0,45,-99.99,,,-99.99,,2013-04-18 02:51:00,
2013-04-17 20:02:00,63.0,44.0,30.18,SE,125,1.0,-999.0,50,-99.99,,,-99.99,,2013-04-18 03:02:00,
2013-04-17 20:12:00,62.0,45.0,30.19,SE,125,0.0,-999.0,54,-99.99,,,-99.99,,2013-04-18 03:12:00,
2013-04-17 20:22:00,62.0,45.0,30.19,SE,125,0.0,-999.0,54,-99.99,,,-99.99,,2013-04-18 03:22:00,
2013-04-17 20:33:00,61.0,45.0,30.19,SE,125,0.0,-999.0,55,-99.99,,,-99.99,,2013-04-18 03:33:00,
2013-04-17 20:43:00,59.0,43.0,30.20,SE,124,0.0,-999.0,56,-99.99,,,-99.99,,2013-04-18 03:43:00,
2013-04-17 20:53:00,59.0,43.0,30.20,SE,124,0.0,-999.0,56,-99.99,,,-99.99,,2013-04-18 03:53:00,
2013-04-17 21:03:00,59.0,40.0,30.20,SE,124,0.0,-999.0,50,-99.99,,,-99.99,,2013-04-18 04:03:00,
2013-04-17 21:13:00,59.0,40.0,30.20,SE,124,0.0,-999.0,50,-99.99,,,-99.99,,2013-04-18 04:13:00,
2013-04-17 21:23:00,59.0,42.0,30.21,SE,124,0.0,-999.0,54,-99.99,,,-99.99,,2013-04-18 04:23:00,
2013-04-17 21:33:00,58.0,41.0,30.22,SE,124,0.0,-999.0,53,-99.99,,,-99.99,,2013-04-18 04:33:00,
2013-04-17 21:43:00,57.0,41.0,30.22,SE,124,0.0,-999.0,56,-99.99,,,-99.99,,2013-04-18 04:43:00,
2013-04-17 21:52:00,57.0,41.0,30.22,SE,124,0.0,-999.0,56,-99.99,,,-99.99,,2013-04-18 04:52:00,
2013-04-17 22:02:00,56.0,41.0,30.23,SE,124,0.0,-999.0,57,-99.99,,,-99.99,,2013-04-18 05:02:00,
2013-04-17 22:12:00,56.0,41.0,30.23,SE,124,0.0,-999.0,57,-99.99,,,-99.99,,2013-04-18 05:12:00,
2013-04-17 22:22:00,56.0,41.0,30.23,SE,124,0.0,-999.0,57,-99.99,,,-99.99,,2013-04-18 05:22:00,
2013-04-17 22:32:00,55.0,40.0,30.23,SE,124,0.0,-999.0,56,-99.99,,,-99.99,,2013-04-18 05:32:00,
2013-04-17 22:42:00,54.0,39.0,30.23,SE,124,0.0,-999.0,57,-99.99,,,-99.99,,2013-04-18 05:42:00,
2013-04-17 22:52:00,54.0,39.0,30.23,SE,124,0.0,-999.0,57,-99.99,,,-99.99,,2013-04-18 05:52:00,
2013-04-17 23:02:00,54.0,40.0,30.23,SE,124,0.0,-999.0,59,-99.99,,,-99.99,,2013-04-18 06:02:00,
2013-04-17 23:12:00,54.0,40.0,30.23,SE,124,0.0,-999.0,59,-99.99,,,-99.99,,2013-04-18 06:12:00,
2013-04-17 23:22:00,53.0,39.0,30.23,SE,124,0.0,-999.0,60,-99.99,,,-99.99,,2013-04-18 06:22:00,
2013-04-17 23:32:00,53.0,39.0,30.23,SE,124,0.0,-999.0,59,-99.99,,,-99.99,,2013-04-18 06:32:00,
2013-04-17 23:42:00,53.0,39.0,30.23,SE,124,0.0,-999.0,59,-99.99,,,-99.99,,2013-04-18 06:42:00,
2013-04-17 23:52:00,53.0,40.0,30.24,SE,124,0.0,-999.0,61,-99.99,,,-99.99,,2013-04-18 06:52:00,